Terug naar catalogus

STARLINK-36806

ActiefCommunicatieSSO
NORAD 67965·PAYLOAD·🇺🇸 United States

Gelanceerd Feb 25, 2026 vanaf Vandenberg Space Force Base

Loading…

Volgende Passages (komende 24 uur)

TLE

VersSource: CelesTrak SupGP

Epoch: Sep 14, 2026, 22:57 UTC

1 67965C 26038E   26257.95673611  .00031564  00000+0  97980-3 0  2573
2 67965  97.2845 266.3360 0001576  87.6535 184.3088 15.33423817    19

Volg STARLINK-36806 in realtime met AllMySat

Download on the App Store